| time (UTC) | temp F | wind direction | speed knots | gust knots | rain 1hr in | rain 24hr in | rain mn in | humidity % | barometer mb |
| 20260503190031 | 54 | 296 | 0.0 | 0.0 | 0.00 | 0.00 | 0.00 | 86 | 1014.9 |
| 20260503184537 | 54 | 296 | 0.0 | 0.0 | 0.00 | 0.00 | 0.00 | 86 | 1014.9 |
| 20260503183035 | 54 | 296 | 0.0 | 0.0 | 0.00 | 0.00 | 0.00 | 85 | 1015.0 |
| 20260503181549 | 54 | 296 | 0.0 | 1.7 | 0.00 | 0.00 | 0.00 | 84 | 1014.9 |
| 20260503180042 | 55 | 303 | 0.0 | 1.7 | 0.00 | 0.00 | 0.00 | 84 | 1014.7 |
| 20260503174556 | 55 | 315 | 0.0 | 0.9 | 0.00 | 0.00 | 0.00 | 84 | 1014.7 |
| 20260503173041 | 55 | 315 | 0.0 | 0.9 | 0.00 | 0.00 | 0.00 | 84 | 1014.6 |
| 20260503171600 | 55 | 310 | 0.0 | 0.9 | 0.00 | 0.00 | 0.00 | 83 | 1014.7 |
| 20260503081520 | 63 | 61 | 1.7 | 7.0 | 0.00 | 0.00 | 0.00 | 73 | 1016.5 |
| 20260503071514 | 66 | 76 | 0.9 | 5.2 | 0.00 | 0.00 | 0.00 | 68 | 1016.1 |
| 20260503054605 | 71 | 50 | 3.5 | 7.0 | 0.00 | 0.00 | 0.00 | 54 | 1016.2 |
| 20260503053036 | 72 | 68 | 0.9 | 4.3 | 0.00 | 0.00 | 0.00 | 54 | 1016.2 |
| 20260503051552 | 72 | 21 | 1.7 | 6.1 | 0.00 | 0.00 | 0.00 | 53 | 1016.3 |
| 20260503050036 | 71 | 287 | 1.7 | 7.0 | 0.00 | 0.00 | 0.00 | 54 | 1016.4 |
| 20260503044547 | 72 | 315 | 0.9 | 7.0 | 0.00 | 0.00 | 0.00 | 54 | 1016.6 |
| 20260503043033 | 72 | 341 | 1.7 | 6.1 | 0.00 | 0.00 | 0.00 | 54 | 1016.7 |
| 20260503041544 | 71 | 35 | 1.7 | 7.0 | 0.00 | 0.00 | 0.00 | 56 | 1016.7 |
| 20260503040017 | 72 | 38 | 1.7 | 6.1 | 0.00 | 0.00 | 0.00 | 56 | 1016.8 |
| 20260503034511 | 71 | 260 | 2.6 | 7.0 | 0.00 | 0.00 | 0.00 | 57 | 1017.2 |
| 20260503033051 | 71 | 322 | 0.9 | 4.3 | 0.00 | 0.00 | 0.00 | 57 | 1017.4 |
| 20260503031503 | 70 | 25 | 0.9 | 5.2 | 0.00 | 0.00 | 0.00 | 58 | 1017.6 |
| 20260503030003 | 70 | 328 | 0.9 | 6.1 | 0.00 | 0.00 | 0.00 | 60 | 1017.6 |
| 20260503024507 | 70 | 290 | 1.7 | 6.1 | 0.00 | 0.00 | 0.00 | 59 | 1017.9 |
| 20260503023048 | 70 | 12 | 1.7 | 6.1 | 0.00 | 0.00 | 0.00 | 59 | 1018.2 |
| 20260503021553 | 70 | 39 | 1.7 | 7.0 | 0.00 | 0.00 | 0.00 | 61 | 1018.3 |
| 20260503020029 | 69 | 303 | 2.6 | 5.2 | 0.00 | 0.00 | 0.00 | 61 | 1018.8 |
| 20260503014546 | 68 | 282 | 2.6 | 5.2 | 0.00 | 0.00 | 0.00 | 67 | 1019.0 |
| 20260503013030 | 67 | 329 | 0.0 | 4.3 | 0.00 | 0.00 | 0.00 | 68 | 1019.5 |
| 20260503011516 | 65 | 270 | 0.0 | 3.5 | 0.00 | 0.00 | 0.00 | 73 | 1019.8 |
| 20260503010059 | 65 | 281 | 1.7 | 4.3 | 0.00 | 0.00 | 0.00 | 74 | 1020.1 |
| 20260503004557 | 64 | 222 | 1.7 | 3.5 | 0.00 | 0.00 | 0.00 | 76 | 1020.3 |
| 20260503003042 | 63 | 287 | 0.9 | 5.2 | 0.00 | 0.00 | 0.00 | 79 | 1020.4 |
| 20260503001545 | 63 | 270 | 0.9 | 4.3 | 0.00 | 0.00 | 0.00 | 80 | 1020.5 |
| 20260503000017 | 62 | 300 | 0.9 | 3.5 | 0.00 | 0.00 | 0.00 | 80 | 1020.6 |
| 20260502234513 | 61 | 264 | 0.0 | 1.7 | 0.00 | 0.00 | 0.00 | 84 | 1020.8 |
| 20260502233043 | 59 | 14 | 0.0 | 2.6 | 0.00 | 0.00 | 0.00 | 86 | 1020.8 |
| 20260502231502 | 57 | 277 | 0.0 | 2.6 | 0.00 | 0.00 | 0.00 | 90 | 1020.9 |
| 20260502230037 | 56 | 272 | 0.9 | 2.6 | 0.00 | 0.00 | 0.00 | 92 | 1021.1 |
| 20260502224549 | 54 | 272 | 0.9 | 2.6 | 0.00 | 0.00 | 0.00 | 93 | 1021.2 |
| 20260502223044 | 53 | 259 | 0.9 | 2.6 | 0.00 | 0.00 | 0.00 | 95 | 1021.2 |
| 20260502221556 | 53 | 264 | 0.0 | 0.9 | 0.00 | 0.00 | 0.00 | 96 | 1021.1 |
| 20260502220039 | 52 | 286 | 0.0 | 0.9 | 0.00 | 0.00 | 0.00 | 96 | 1021.0 |
| 20260502214555 | 52 | 73 | 0.0 | 0.0 | 0.00 | 0.00 | 0.00 | 97 | 1020.9 |
| 20260502213033 | 50 | 73 | 0.0 | 2.6 | 0.00 | 0.00 | 0.00 | 96 | 1020.7 |
| 20260502211547 | 50 | 301 | 0.0 | 1.7 | 0.00 | 0.00 | 0.00 | 96 | 1020.5 |
| 20260502210038 | 50 | 275 | 0.0 | 1.7 | 0.00 | 0.01 | 0.00 | 95 | 1020.2 |
| 20260502204554 | 50 | 336 | 0.0 | 0.0 | 0.00 | 0.01 | 0.00 | 95 | 1019.9 |
| 20260502203040 | 51 | 336 | 0.0 | 0.0 | 0.00 | 0.01 | 0.00 | 95 | 1020.0 |
| 20260502201550 | 51 | 38 | 0.0 | 0.0 | 0.00 | 0.01 | 0.00 | 95 | 1020.0 |
| 20260502200031 | 51 | 38 | 0.0 | 0.0 | 0.00 | 0.01 | 0.00 | 94 | 1019.9 |
| 20260502194535 | 51 | 3 | 0.0 | 0.0 | 0.00 | 0.01 | 0.00 | 94 | 1020.1 |
| 20260502193015 | 52 | 3 | 0.0 | 0.0 | 0.00 | 0.01 | 0.00 | 93 | 1020.1 |
| 20260502191530 | 52 | 3 | 0.0 | 0.0 | 0.00 | 0.01 | 0.00 | 91 | 1020.1 |